TimePST,TemperatureF,Dew PointF,Humidity,Sea Level PressureIn,VisibilityMPH,Wind Direction,Wind SpeedMPH,Gust SpeedMPH,PrecipitationIn,Events,Conditions,WindDirDegrees,DateUTC
12:56 AM,35.1,15.1,44,30.34,10.0,Calm,Calm,-,N/A,,Clear,0,2013-02-16 08:56:00
1:56 AM,36.0,18.0,48,30.33,10.0,Calm,Calm,-,N/A,,Clear,0,2013-02-16 09:56:00
3:56 AM,30.0,14.0,51,30.31,10.0,NNW,3.5,-,N/A,,Clear,330,2013-02-16 11:56:00
4:56 AM,32.0,16.0,52,30.31,10.0,Calm,Calm,-,N/A,,Clear,0,2013-02-16 12:56:00
5:56 AM,32.0,16.0,52,30.32,10.0,WSW,4.6,-,N/A,,Clear,240,2013-02-16 13:56:00
6:56 AM,34.0,18.0,52,30.32,10.0,Calm,Calm,-,N/A,,Clear,0,2013-02-16 14:56:00
7:56 AM,35.1,18.0,50,30.34,10.0,Calm,Calm,-,N/A,,Clear,0,2013-02-16 15:56:00
8:56 AM,45.0,17.1,33,30.33,10.0,Calm,Calm,-,N/A,,Clear,0,2013-02-16 16:56:00
9:56 AM,53.1,16.0,23,30.32,10.0,Calm,Calm,-,N/A,,Clear,0,2013-02-16 17:56:00
10:56 AM,57.9,16.0,19,30.29,10.0,Calm,Calm,-,N/A,,Clear,0,2013-02-16 18:56:00
11:56 AM,63.0,14.0,15,30.25,10.0,NE,9.2,-,N/A,,Clear,50,2013-02-16 19:56:00
12:56 PM,64.9,14.0,14,30.19,10.0,NE,8.1,-,N/A,,Clear,40,2013-02-16 20:56:00
1:56 PM,66.9,15.1,14,30.14,10.0,Variable,3.5,-,N/A,,Clear,0,2013-02-16 21:56:00
2:56 PM,68.0,12.0,11,30.12,10.0,ENE,4.6,-,N/A,,Clear,60,2013-02-16 22:56:00
3:56 PM,68.0,12.9,12,30.11,10.0,Calm,Calm,-,N/A,,Clear,0,2013-02-16 23:56:00
4:56 PM,66.0,12.0,12,30.09,10.0,NE,3.5,-,N/A,,Clear,40,2013-02-17 00:56:00
5:56 PM,61.0,12.9,15,30.09,10.0,SW,4.6,-,N/A,,Clear,230,2013-02-17 01:56:00
6:56 PM,51.1,18.0,27,30.10,10.0,West,6.9,-,N/A,,Clear,260,2013-02-17 02:56:00
7:56 PM,44.1,15.1,31,30.10,10.0,WNW,6.9,-,N/A,,Clear,300,2013-02-17 03:56:00
8:56 PM,46.0,16.0,30,30.08,10.0,WNW,8.1,-,N/A,,Clear,290,2013-02-17 04:56:00
9:56 PM,42.1,16.0,35,30.07,10.0,West,8.1,-,N/A,,Clear,260,2013-02-17 05:56:00
10:56 PM,39.9,15.1,36,30.06,10.0,Calm,Calm,-,N/A,,Clear,0,2013-02-17 06:56:00
11:56 PM,37.9,16.0,41,30.04,10.0,Calm,Calm,-,N/A,,Clear,0,2013-02-17 07:56:00